Reflectivity
-20 -20 -20 -20 -20 -20 -20 -20 -20 -20 -20 -20 -20 -20 -20 -20 -20 -20 -20 -20 -20 -20 -20 -20 -20 -20 -20 -20 -20 -20 -20 -20 -20 -20 -20 -20 -20 -20 -20 -20 -20 -20 -20
-20 -20 -20 -20 -20 -20 -20 -20 -20 -20 -20 -20 -8 2 -6 28 -12 -20 -20 -20 -20 -20 -20 -20 -20 -20 -20 -20 -20 -20 -20 -15 -20 -20 -20 -20 -20 -20 -20 -20 -20 -20 -20
-20 -20 -20 -20 -20 -20 -20 -20 -20 -20 -20 -20 -20 -20 -20 -20 -20 -20 -20 -10 -7 12 -20 -20 -20 -20 -20 -20 -20 4 -20 9 -12 -20 -20 -20 -20 -20 -20 -20 -20 -20 -20
-20 -20 -20 -20 -20 -20 -20 -20 -20 -20 -20 -20 -20 -20 -20 -20 -20 -20 -20 -20 -20 -12 13 15 -1 -12 -20 -20 -20 -20 9 19 10 17 -20 -20 -20 -20 -20 -3 17 21 -6
-20 -20 -20 -20 -20 -20 -20 -20 -20 -20 -20 -20 -20 -20 -20 -20 -20 -20 -20 -20 -20 -20 -20 -20 -20 -20 -17 -19 -20 -19 -20 -20 11 -20 26 20 19 -20 16 -0 16 8 22
-20 -20 -20 -20 -20 -20 -20 -20 -20 -20 -20 -20 -20 -20 -20 -20 -20 -20 -20 -13 7 -18 -20 -20 -17 -9 -11 -7 2 6 12 13 22 -0 -15 11 14 22 21 -13 16 20 10
-20 -20 -20 -20 -20 -20 -20 -20 -20 -20 -20 -20 -20 -20 -20 -20 -20 -20 -20 -20 -20 -20 -20 -20 -20 -20 -20 -20 -7 -5 14 13 16 18 22 18 2 18 18 31 20 5 3
-20 -20 -20 -20 -20 -20 -20 -20 -20 -20 -20 -20 -20 -20 -20 -20 -20 -20 -20 -20 -20 -20 -20 -20 -20 -20 -2 11 5 13 17 -2 15 15 17 23 27 -13 18 12 16 24 18
-20 -20 -20 -20 -20 -20 -20 -20 -20 -20 -20 -20 -20 -20 -20 -20 -20 -20 -20 -20 -20 -20 -20 -20 -20 -20 -7 -20 -20 -20 -10 -20 -20 -18 -19 15 9 24 24 28 27 25 20
-20 -20 -20 -20 -20 -20 -20 -20 -20 -20 -20 -20 -20 -20 -20 -20 -20 -20 -20 -20 -20 -20 -20 -20 -20 -20 -20 -20 -20 -20 -20 -20 -20 -20 1 -18 -4 6 5 13 7 18 30
-20 -20 -20 -20 -20 -20 -20 -20 -20 -20 -20 -20 -20 -20 -20 -20 -20 -20 -20 -20 -20 -20 -20 -20 -20 -20 -20 -20 -20 -20 -20 -20 -20 -20 -20 -20 -20 -20 -19 -18 -14 -14 2
-20 -20 -20 -20 -20 -20 -20 -20 -20 -20 -20 -20 -20 -20 -20 -20 -20 -20 -20 -20 -20 -20 -20 -20 -20 -20 -20 -20 -20 -20 -20 -20 -20 -20 -20 6 13 6 7 -19 4 -19 -5
-20 -20 -20 -20 -20 -20 -20 -20 -20 -20 -20 -20 -20 -20 -20 -20 -20 -20 -20 -20 -20 -20 -20 -20 -20 -20 -20 -20 -20 -20 -20 -20 -20 -20 -20 -5 12 15 -13 -8 3 -20 -15
-20 -20 -20 -20 -20 -20 -20 -20 -20 -20 -20 -20 -20 -20 -20 -20 -20 -20 -20 -20 -20 -20 -20 -20 -20 -20 -20 -20 -20 -20 -20 -20 -20 -20 -20 -14 -5 5 12 -13 -20 -20 -19
-20 -20 -20 -20 -20 -20 -20 -20 -20 -20 -20 -20 -20 -20 -20 -20 -20 -20 -20 -20 -20 -20 -20 -20 -20 -20 -20 -20 -20 -20 -20 -20 -20 -15 -18 -16 3 11 -2 -8 9 9 -2
-20 -20 -20 -20 -20 -20 -20 -20 -20 -20 -20 -20 -20 -20 -20 -20 -20 -20 -20 -20 -20 -20 -20 -20 -20 -20 -20 -20 -20 -20 -20 -20 -20 -20 -6 -13 2 -11 2 7 13 14 32
-20 -20 -20 -20 -20 -20 -20 -20 -20 -20 -20 -20 -20 -20 -20 -20 -20 -20 -12 -20 -20 -20 -20 -7 3 -18 -16 4 -20 -20 -20 -20 -20 -20 -20 -20 -20 -20 -20 -20 -20 -12 -20
-20 -20 -20 -20 -20 -20 -20 -20 -20 -20 -20 -20 -20 -20 -20 -20 -20 -20 -20 -20 -20 -20 -1 11 -16 -20 -1 -4 -20 -20 -20 -20 -20 -20 -20 -20 -20 -20 -20 -20 -20 -20 -20
-20 -20 -20 -20 -20 -20 -20 -20 -20 -20 -20 -20 -20 -20 -20 -20 -20 -20 -20 -20 -20 -20 -8 -20 -20 -20 -20 -20 -20 -20 -20 -20 -20 -20 -20 -20 -20 -20 -20 -20 -20 -20 -20
-20 -20 -20 -20 -20 -20 -20 -20 -20 -20 -20 -20 -20 -20 -20 -20 -20 -20 -20 -20 -20 -20 -20 -20 -20 -20 -20 -20 -20 -20 -20 -20 -20 -20 -20 -20 -20 -20 -20 -20 -20 -20 -20
-20 -20 -20 -20 -20 -20 -20 -20 -20 -20 -20 -20 -20 -20 -20 -20 -20 -17 -20 -20 -20 -20 -20 -20 -20 -20 -20 -20 -20 -20 -20 -20 -20 -20 -20 -20 -20 -20 -20 -20 -20 -20 -20
-20 -20 -20 -20 -20 -20 -20 -20 -10 -20 -20 -20 -5 -20 -20 -20 -20 -20 -20 -20 -20 -20 -20 -20 -20 -20 -20 -20 -20 -20 -20 -20 -20 -20 -20 -20 -20 -20 -20 -20 -20 -20 -20
-20 -20 -20 -20 -20 -20 -20 -20 -19 -20 -20 -20 -18 -20 -20 -20 -20 -20 -20 -20 -20 -20 -20 -20 -20 -20 -20 -20 -20 -20 -20 -20 -20 -20 -20 -20 -20 -20 -20 -20 -20 -20 -20
-20 -20 -20 -20 -20 -20 -20 -20 -20 -20 -20 -20 -20 -20 -20 -20 -20 -20 -20 -20 -20 -20 -20 -20 -20 -20 -20 -20 -20 -20 -20 -20 -20 -20 -20 -20 -20 -20 -20 -20 -20 -20 -20
-20 -20 -20 -20 -20 -20 -20 -20 -20 -20 -20 -20 -20 -20 -20 -20 -20 -20 -20 -20 -20 -20 -20 -20 -20 -20 -20 -20 -20 -20 -20 -20 -20 -20 -20 -20 -20 -20 -20 -20 -20 -20 -20
-20 -20 -20 -20 -20 -20 -20 -20 -20 -20 -20 -20 -20 -20 -20 -20 -20 -20 -20 -20 -20 -20 -20 -20 -20 -20 -20 -20 -20 -20 -20 -20 -20 -20 -20 -20 -20 -20 -20 -20 -20 -20 -20
Wind_Speed
7 8 7 7 6 3 6 7 7 11 9 3 3 2 4 3 2 2 4 6 8 9 9 6 6 6 6 8 6 4 6 4 3 4 3 2 4 5 5 5 5 6 8
5 7 6 5 5 5 4 3 3 5 5 8 6 3 3 4 2 3 4 4 3 4 8 8 9 7 5 6 8 7 3 4 5 4 2 2 4 4 6 5 6 7 6
5 5 6 6 6 6 5 5 5 5 2 4 3 2 3 2 1 3 4 5 6 5 4 4 5 8 7 7 8 9 9 7 4 6 6 2 6 0 2 8 6 6 4
6 6 6 6 5 4 4 3 3 3 2 5 2 4 5 6 4 4 4 5 7 7 6 6 5 5 4 6 6 5 7 5 8 2 6 2 5 5 3 2 4 4 5
8 7 7 6 5 4 4 4 1 1 2 2 1 2 1 1 1 3 6 7 5 6 6 6 6 5 4 4 5 5 8 7 6 5 1 5 1 1 2 4 3 0 1
7 7 6 6 5 5 5 6 5 6 6 4 2 1 3 3 2 2 3 4 4 4 6 6 7 6 5 5 4 5 6 8 8 6 6 5 5 8 3 3 3 2 4
7 6 7 6 5 5 6 5 6 7 7 7 8 7 3 1 1 2 1 2 2 2 5 8 6 4 5 5 3 3 4 6 8 8 8 8 7 2 4 3 1 2 1
7 7 6 6 6 6 6 7 7 6 7 7 7 7 7 4 3 3 3 3 3 4 5 4 4 2 3 3 3 2 3 4 4 6 5 5 6 4 4 5 5 1 1
8 7 7 6 6 6 6 6 6 6 6 6 5 6 6 6 5 6 5 4 5 4 6 7 7 6 5 5 4 3 4 3 4 4 3 3 3 3 3 2 2 4 4
8 7 6 6 5 6 5 6 6 6 4 5 5 5 6 6 6 6 7 6 6 5 6 6 6 6 6 5 5 4 4 4 4 3 4 4 3 4 3 3 1 1 2
7 6 6 6 6 6 6 6 6 6 6 6 6 7 7 8 8 8 7 6 7 6 7 6 6 7 6 6 5 6 5 6 5 5 5 6 4 3 3 3 3 2 2
7 7 7 6 6 6 6 6 5 6 6 5 7 7 8 8 8 8 7 7 8 7 7 7 8 7 6 6 6 6 5 5 6 6 6 5 4 5 4 3 4 4 3
7 7 6 6 6 5 5 5 5 5 5 7 7 7 7 7 7 7 7 7 7 7 8 8 7 6 6 6 6 6 8 8 7 6 8 7 6 5 4 5 4 3 3
8 6 6 6 6 5 5 5 5 5 5 7 6 7 6 6 6 6 6 7 6 7 7 7 7 7 6 7 7 8 7 8 8 8 8 7 7 7 5 5 4 4 4
7 8 7 6 6 6 5 5 4 5 5 6 6 7 6 6 6 6 7 8 7 7 7 7 7 6 6 6 6 9 8 9 10 9 8 7 10 11 8 4 3 3 2
8 7 7 7 7 7 6 5 5 5 5 6 7 6 6 7 7 7 8 9 8 8 8 9 8 8 7 15 15 11 8 8 8 7 7 7 10 10 10 10 7 3 1
7 8 8 6 6 6 6 6 5 5 6 6 6 6 8 8 8 7 8 8 8 10 9 7 7 8 8 15 16 15 6 6 6 6 4 5 4 4 1 2 3 2 1
8 7 7 7 6 5 6 6 5 6 5 6 7 8 8 7 7 8 8 8 8 7 4 5 5 5 8 15 15 14 7 6 5 4 4 4 1 2 2 2 2 2 2
6 6 8 6 6 6 7 8 6 6 6 6 7 8 7 7 6 7 7 8 6 5 3 3 4 4 5 12 12 9 5 5 4 3 1 3 1 2 6 4 3 2 2
7 8 7 6 7 5 6 7 6 6 6 6 7 7 6 6 7 7 6 5 5 4 2 2 4 8 5 10 9 6 3 4 2 1 2 4 3 4 4 3 1 1 2
8 7 6 6 6 5 7 7 6 6 6 8 7 7 6 7 7 6 4 3 2 3 3 4 3 4 5 6 10 9 4 3 2 2 1 1 4 5 4 2 1 3 2
7 6 6 6 5 6 7 7 6 6 8 8 7 6 7 6 6 6 4 4 4 5 4 4 3 2 3 5 5 6 6 5 2 2 0 3 6 5 4 1 3 4 4
6 5 6 7 5 5 6 8 7 8 9 9 9 7 6 5 5 5 5 3 4 4 3 3 3 2 1 2 4 4 3 4 2 1 3 4 5 5 4 3 4 2 2
7 6 7 7 6 6 6 5 8 9 9 9 8 6 5 5 5 4 4 4 4 3 3 3 3 2 1 2 2 3 3 5 3 3 4 4 3 3 3 2 3 1 1
7 7 8 6 7 7 7 8 9 10 9 8 6 6 5 5 4 3 4 4 2 4 4 3 3 3 2 2 3 1 0 1 3 3 2 2 1 1 2 2 2 2 2
8 7 8 8 9 8 8 9 10 10 7 6 5 5 4 4 4 4 3 6 5 7 7 7 5 1 4 3 2 2 3 5 4 1 1 1 1 1 1 2 2 1 4
Wind_Direction
248 207 195 204 220 202 161 180 175 188 179 167 193 219 213 209 213 165 253 205 197 200 198 202 195 183 194 206 195 186 196 218 154 101 0 321 257 240 218 206 208 201 198
33 21 57 60 66 85 39 355 186 173 197 187 191 184 187 223 194 182 215 220 206 233 207 198 208 197 183 192 200 185 176 195 176 146 107 249 313 254 227 211 211 208 186
127 76 68 66 65 55 40 33 23 8 295 209 188 107 92 41 152 233 232 226 210 223 217 236 237 209 199 202 202 200 186 207 209 201 149 154 226 309 239 231 220 204 192
122 115 100 69 52 41 44 29 3 351 350 11 116 186 179 192 206 200 221 233 207 218 205 214 225 241 219 202 206 216 210 147 208 268 234 149 140 195 303 293 252 220 210
133 122 118 116 98 72 35 359 6 2 328 8 72 109 237 274 296 233 214 216 221 221 224 210 209 207 222 234 203 204 202 211 209 223 207 247 236 152 159 265 286 229 99
127 122 119 111 87 54 32 24 47 32 25 25 14 97 183 234 266 306 239 221 210 217 219 205 201 191 198 213 207 201 206 216 222 207 206 198 206 223 210 209 248 269 30
140 140 130 123 106 78 49 44 51 40 30 34 31 15 352 305 296 284 284 270 228 214 215 195 199 200 210 207 225 241 224 220 221 220 225 219 225 181 204 190 194 158 152
135 141 133 134 116 97 71 55 52 43 29 31 32 32 36 45 50 37 31 31 45 37 39 52 63 90 61 24 320 267 252 242 232 224 201 217 221 185 189 186 159 168 226
135 132 118 111 105 92 81 79 72 55 41 34 29 28 29 41 46 49 55 58 48 58 57 59 61 51 50 55 26 10 347 338 356 15 55 81 55 49 27 346 335 231 180
135 130 124 111 99 91 89 71 73 72 51 47 39 34 31 44 55 53 51 55 50 46 68 73 73 61 49 36 33 30 19 49 35 33 67 76 88 82 77 90 97 81 153
141 137 129 121 109 91 81 72 62 57 40 56 53 54 47 47 48 48 40 44 49 38 47 64 68 58 54 42 60 56 42 57 63 56 69 75 82 87 92 94 96 61 56
143 134 135 121 106 98 83 74 63 62 57 63 61 56 55 52 54 46 39 39 45 37 40 49 54 50 50 44 57 74 67 67 67 72 78 79 81 67 51 43 75 95 55
138 140 131 130 121 108 93 80 67 74 73 70 66 56 51 53 52 50 48 47 50 45 45 54 58 55 54 63 65 79 83 82 75 75 81 77 78 65 55 49 43 56 73
160 158 144 139 132 126 116 99 74 81 89 82 76 71 61 59 55 53 55 62 57 61 54 51 58 59 60 66 72 72 69 77 73 69 69 76 78 87 81 72 54 30 34
166 161 154 155 152 137 124 109 91 89 102 94 90 85 76 69 64 57 58 58 54 59 62 68 64 71 73 75 71 79 78 84 76 64 69 82 96 97 94 92 90 80 37
172 157 152 157 154 148 143 126 113 102 101 101 98 98 91 83 75 64 67 70 71 67 60 57 70 80 80 94 97 91 90 82 82 83 68 61 54 50 51 57 79 98 125
164 161 161 153 147 150 142 138 129 112 102 100 101 96 94 91 88 88 84 82 70 63 55 60 72 79 88 93 93 89 69 72 70 75 78 80 69 68 68 227 197 223 72
164 160 147 133 135 125 119 120 118 107 105 111 111 105 107 103 103 101 94 84 74 71 70 52 50 63 83 92 94 95 91 83 74 76 78 90 162 229 239 327 294 280 307
144 136 141 136 137 133 132 124 118 119 109 98 103 111 118 116 107 95 99 87 87 95 107 79 72 80 84 90 95 96 87 91 91 88 80 58 102 351 43 49 28 5 4
123 127 128 129 124 133 132 128 131 123 116 117 120 119 119 112 105 108 98 83 120 145 116 96 111 94 65 75 105 99 110 95 112 140 36 56 62 18 359 87 63 38 278
129 127 135 140 135 132 121 118 127 130 128 122 118 114 113 114 112 109 111 119 120 90 90 108 94 86 82 67 72 81 76 84 100 101 83 335 10 347 341 2 165 229 228
130 137 133 131 128 123 128 136 140 138 128 122 121 122 125 129 130 139 138 150 140 136 131 115 84 58 56 87 73 68 87 80 86 82 214 290 315 327 320 2 295 329 11
152 148 139 134 126 129 146 154 154 146 139 140 146 148 142 134 156 157 165 161 164 156 160 146 144 188 227 353 50 42 56 32 134 188 294 319 334 335 347 325 308 5 21
165 156 148 147 148 147 157 150 155 150 150 153 152 144 149 172 190 188 178 164 167 163 157 161 177 204 121 95 62 54 34 32 16 357 328 299 320 321 289 324 354 338 253
165 162 162 161 162 162 160 161 165 164 165 161 153 165 174 157 140 141 158 146 181 172 166 178 171 163 172 213 156 97 58 287 304 8 336 346 350 347 357 5 17 10 5
166 165 168 164 164 168 169 174 179 179 167 160 160 171 152 150 143 123 106 120 122 112 125 142 156 169 166 146 92 358 330 323 317 23 312 285 264 237 327 336 328 320 335